Location: *
(40.4000°N, 15.1200°E)
Time: 05:40:46
(UTC+00:00)

Ariane Rocket - Pass Details

Date: 09 April 2020
Orbit: 761 x 769 km, 98.7° (Epoch: 05 June)

Event Time Altitude Azimuth Distance (km) Brightness Sun altitude
Rises 18:23:52 0° 164° (SSE) 3,216 5.9 -10.2°
Reaches altitude 10° 18:26:09 10° 165° (SSE) 2,292 5.1 -10.6°
Maximum altitude 18:31:13 89° 78° (ENE) 769 3.0 -11.5°
Drops below altitude 10° 18:36:18 10° 347° (NNW) 2,304 6.0 -12.4°
Sets 18:38:37 0° 347° (NNW) 3,233 6.8 -12.8°
